• In Netherlands
  • List of Countries
  • For 7 days
  • Water Temperature
  • Satellite Maps
  • Weather Map
  • Weather Widgets
  • user-avatar
    Login

    Hourly Weather Minsk

    Today, 27 May, Saturday

    Time Temperature Precipitation Wind Pressure Humidity
    00:00 +8°C° 0 mm 2 mps 743 mmHg 93%
    01:00 +7°C° 0 mm 2 mps 743 mmHg 94%
    02:00 +7°C° 0 mm 2 mps 743 mmHg 95%
    03:00 +7°C° 0 mm 2 mps 744 mmHg 95%
    04:00 +7°C° 0 mm 2 mps 744 mmHg 94%
    05:00 +7°C° 0 mm 2 mps 744 mmHg 94%
    06:00 +9°C° 0 mm 2 mps 745 mmHg 86%
    07:00 +12°C° 0 mm 2 mps 745 mmHg 77%
    08:00 +14°C° 0 mm 2 mps 745 mmHg 69%
    09:00 +14°C° 0 mm 3 mps 746 mmHg 62%
    10:00 +17°C° 0 mm 3 mps 746 mmHg 55%
    11:00 +18°C° 0 mm 3 mps 746 mmHg 48%
    12:00 +19°C° 0.1 mm 3 mps 746 mmHg 47%
    13:00 +19°C° 0.1 mm 3 mps 746 mmHg 45%
    14:00 +20°C° 0.1 mm 3 mps 746 mmHg 44%
    15:00 +20°C° 0 mm 3 mps 746 mmHg 45%
    16:00 +19°C° 0 mm 3 mps 746 mmHg 46%
    17:00 +19°C° 0 mm 3 mps 746 mmHg 48%
    18:00 +17°C° 0 mm 3 mps 746 mmHg 57%
    19:00 +15°C° 0 mm 2 mps 746 mmHg 65%
    20:00 +14°C° 0 mm 2 mps 746 mmHg 74%
    21:00 +13°C° 0 mm 2 mps 746 mmHg 77%
    22:00 +12°C° 0 mm 2 mps 746 mmHg 79%
    23:00 +10°C° 0 mm 2 mps 747 mmHg 82%

    Tomorrow, 28 May, Sunday

    Time Temperature Precipitation Wind Pressure Humidity
    00:00 +10°C° 0 mm 2 mps 747 mmHg 83%
    01:00 +10°C° 0 mm 2 mps 747 mmHg 84%
    02:00 +10°C° 0 mm 2 mps 747 mmHg 85%
    03:00 +10°C° 0 mm 2 mps 747 mmHg 86%
    04:00 +10°C° 0 mm 3 mps 747 mmHg 86%
    05:00 +10°C° 0 mm 3 mps 747 mmHg 87%
    06:00 +12°C° 0 mm 3 mps 747 mmHg 78%
    07:00 +14°C° 0 mm 4 mps 747 mmHg 69%
    08:00 +17°C° 0 mm 4 mps 747 mmHg 61%
    09:00 +18°C° 0 mm 4 mps 747 mmHg 58%
    10:00 +20°C° 0 mm 4 mps 747 mmHg 56%
    11:00 +21°C° 0 mm 4 mps 747 mmHg 54%
    12:00 +22°C° 0 mm 4 mps 747 mmHg 53%
    13:00 +23°C° 0 mm 4 mps 747 mmHg 53%
    14:00 +25°C° 0 mm 4 mps 747 mmHg 53%
    15:00 +25°C° 0.2 mm 3 mps 746 mmHg 57%
    16:00 +24°C° 0.2 mm 3 mps 746 mmHg 61%
    17:00 +24°C° 0.2 mm 3 mps 746 mmHg 66%
    18:00 +21°C° 0.1 mm 3 mps 746 mmHg 75%
    19:00 +19°C° 0.1 mm 2 mps 746 mmHg 83%
    20:00 +18°C° 0.1 mm 2 mps 745 mmHg 92%
    21:00 +17°C° 0 mm 2 mps 745 mmHg 93%
    22:00 +16°C° 0 mm 2 mps 745 mmHg 94%
    23:00 +16°C° 0 mm 2 mps 745 mmHg 95%

    Day after tomorrow, 29 May, Monday

    Time Temperature Precipitation Wind Pressure Humidity
    00:00 +15°C° 0 mm 2 mps 745 mmHg 95%
    01:00 +15°C° 0 mm 2 mps 745 mmHg 95%
    02:00 +14°C° 0 mm 2 mps 744 mmHg 95%
    03:00 +13°C° 0 mm 3 mps 744 mmHg 93%
    04:00 +13°C° 0 mm 3 mps 744 mmHg 91%
    05:00 +13°C° 0 mm 3 mps 744 mmHg 89%
    06:00 +15°C° 0 mm 4 mps 743 mmHg 81%
    07:00 +18°C° 0 mm 4 mps 743 mmHg 72%
    08:00 +19°C° 0 mm 5 mps 743 mmHg 64%
    09:00 +21°C° 0 mm 5 mps 742 mmHg 58%
    10:00 +22°C° 0 mm 6 mps 742 mmHg 52%
    11:00 +24°C° 0 mm 7 mps 742 mmHg 46%
    12:00 +24°C° 0 mm 6 mps 741 mmHg 46%
    13:00 +24°C° 0 mm 6 mps 741 mmHg 47%
    14:00 +24°C° 0 mm 6 mps 740 mmHg 47%
    15:00 +24°C° 0.1 mm 6 mps 740 mmHg 51%
    16:00 +23°C° 0.1 mm 5 mps 740 mmHg 56%
    17:00 +23°C° 0.1 mm 5 mps 740 mmHg 60%
    18:00 +21°C° 0.1 mm 4 mps 739 mmHg 67%
    19:00 +20°C° 0.1 mm 3 mps 739 mmHg 75%
    20:00 +18°C° 0.1 mm 3 mps 739 mmHg 82%
    21:00 +17°C° 0 mm 3 mps 739 mmHg 85%
    22:00 +16°C° 0 mm 2 mps 739 mmHg 88%
    23:00 +15°C° 0 mm 2 mps 739 mmHg 91%

    30 May, Tuesday

    Time Temperature Precipitation Wind Pressure Humidity
    00:00 +15°C° 0 mm 2 mps 739 mmHg 93%
    01:00 +14°C° 0 mm 2 mps 739 mmHg 95%
    02:00 +13°C° 0 mm 2 mps 739 mmHg 97%
    03:00 +13°C° 0 mm 2 mps 739 mmHg 97%
    04:00 +13°C° 0 mm 2 mps 739 mmHg 97%
    05:00 +13°C° 0 mm 1 mps 739 mmHg 97%
    06:00 +14°C° 0 mm 1 mps 739 mmHg 92%
    07:00 +16°C° 0 mm 1 mps 740 mmHg 86%
    08:00 +17°C° 0 mm 2 mps 740 mmHg 80%
    09:00 +19°C° 0.1 mm 2 mps 740 mmHg 74%
    10:00 +20°C° 0.1 mm 2 mps 740 mmHg 68%
    11:00 +21°C° 0.1 mm 2 mps 740 mmHg 62%
    12:00 +21°C° 0 mm 2 mps 740 mmHg 61%
    13:00 +21°C° 0 mm 2 mps 740 mmHg 60%
    14:00 +23°C° 0 mm 2 mps 740 mmHg 58%
    15:00 +23°C° 0 mm 2 mps 740 mmHg 59%
    16:00 +21°C° 0 mm 2 mps 740 mmHg 59%
    17:00 +21°C° 0 mm 2 mps 740 mmHg 59%
    18:00 +20°C° 0 mm 2 mps 740 mmHg 67%
    19:00 +19°C° 0 mm 1 mps 740 mmHg 76%
    20:00 +16°C° 0 mm 1 mps 740 mmHg 84%
    21:00 +15°C° 0 mm 1 mps 740 mmHg 86%
    22:00 +14°C° 0 mm 1 mps 740 mmHg 88%
    23:00 +13°C° 0 mm 1 mps 741 mmHg 90%

    31 May, Wednesday

    Time Temperature Precipitation Wind Pressure Humidity
    00:00 +12°C° 0 mm 1 mps 740 mmHg 92%
    01:00 +12°C° 0 mm 1 mps 740 mmHg 93%
    02:00 +11°C° 0 mm 1 mps 740 mmHg 94%
    03:00 +12°C° 0 mm 1 mps 740 mmHg 94%
    04:00 +12°C° 0 mm 1 mps 739 mmHg 93%
    05:00 +13°C° 0 mm 1 mps 739 mmHg 93%
    06:00 +15°C° 0 mm 2 mps 739 mmHg 85%
    07:00 +17°C° 0 mm 2 mps 739 mmHg 78%
    08:00 +19°C° 0 mm 3 mps 738 mmHg 70%
    09:00 +20°C° 0 mm 3 mps 738 mmHg 66%
    10:00 +22°C° 0 mm 4 mps 738 mmHg 61%
    11:00 +23°C° 0 mm 4 mps 738 mmHg 57%
    12:00 +23°C° 0.1 mm 4 mps 737 mmHg 57%
    13:00 +25°C° 0.1 mm 5 mps 737 mmHg 58%
    14:00 +25°C° 0.1 mm 5 mps 736 mmHg 59%
    15:00 +25°C° 0.1 mm 5 mps 736 mmHg 61%
    16:00 +25°C° 0.1 mm 5 mps 736 mmHg 63%
    17:00 +23°C° 0.1 mm 5 mps 736 mmHg 65%
    18:00 +21°C° 0 mm 5 mps 736 mmHg 69%
    19:00 +19°C° 0 mm 5 mps 736 mmHg 73%
    20:00 +15°C° 0 mm 4 mps 736 mmHg 77%
    21:00 +14°C° 0 mm 4 mps 736 mmHg 77%
    22:00 +13°C° 0 mm 4 mps 736 mmHg 78%
    23:00 +12°C° 0 mm 4 mps 736 mmHg 78%

    1 June, Thursday

    Time Temperature Precipitation Wind Pressure Humidity
    00:00 +11°C° 0 mm 4 mps 736 mmHg 81%
    01:00 +11°C° 0 mm 4 mps 736 mmHg 83%
    02:00 +10°C° 0 mm 4 mps 736 mmHg 86%
    03:00 +11°C° 0 mm 4 mps 737 mmHg 86%
    04:00 +11°C° 0 mm 4 mps 737 mmHg 86%
    05:00 +11°C° 0 mm 4 mps 737 mmHg 86%
    06:00 +11°C° 0 mm 4 mps 738 mmHg 82%
    07:00 +12°C° 0 mm 4 mps 738 mmHg 77%
    08:00 +12°C° 0 mm 4 mps 738 mmHg 72%
    09:00 +14°C° 0 mm 4 mps 739 mmHg 64%
    10:00 +15°C° 0 mm 4 mps 739 mmHg 57%
    11:00 +17°C° 0 mm 4 mps 739 mmHg 49%
    12:00 +18°C° 0 mm 4 mps 739 mmHg 46%
    13:00 +19°C° 0 mm 4 mps 739 mmHg 43%
    14:00 +20°C° 0 mm 4 mps 739 mmHg 40%
    15:00 +20°C° 0 mm 4 mps 739 mmHg 43%
    16:00 +19°C° 0 mm 4 mps 738 mmHg 45%
    17:00 +19°C° 0 mm 4 mps 738 mmHg 48%
    18:00 +18°C° 0 mm 3 mps 738 mmHg 57%
    19:00 +16°C° 0 mm 3 mps 737 mmHg 67%
    20:00 +14°C° 0 mm 2 mps 737 mmHg 76%
    21:00 +13°C° 0.1 mm 3 mps 737 mmHg 81%
    22:00 +12°C° 0.1 mm 3 mps 738 mmHg 86%
    23:00 +11°C° 0.1 mm 4 mps 738 mmHg 91%
    Show more